EBBREBCI

Guest
Details From EBBR - Brussels Airport
To EBCI - Brussels South - Charleroi
Flight Number -
Tags Routegen Generated
Created
Modified
Stats Distance 36 nm / 66 km
Max Altitude 100 ft / 30 m
Waypoints 5
Social Downloads 1
Likes 0
Share VATSIM

Download

Looking for another format? Having issues loading an existing format? Contact us
Advertisement - Login to hide

Notes

Departing runway 6 EBBR. Arriving runway 6 EBCI.

Route

EBBR +50.94_+004.61 +50.72_+004.59 +50.49_+004.57 EBCI

ID Type Via Altitude Latitude Longitude Leg Dist Tot Dist Heading (true) Name
O EBBR APT - 0 ft / 0 m 50.91280˚ 4.50339˚ - 0 nm - -
+50.94_+004.61 LATLON - 100 ft / 30 m 50.94310˚ 4.60765˚ 4 nm 4 nm 65° / 65° -
+50.72_+004.59 LATLON - 100 ft / 30 m 50.71864˚ 4.59048˚ 13 nm 17 nm 183° / 183° -
+50.49_+004.57 LATLON - 100 ft / 30 m 50.49418˚ 4.57332˚ 13 nm 31 nm 183° / 183° -
O EBCI APT - 0 ft / 0 m 50.46472˚ 4.46944˚ 4 nm 35 nm 246° / 246° -

Altitude Profile

Advertisement - Login to hide

EBBR

Details ICAO EBBR (BRU)
Name Brussels Airport
Region Belgium
Timezone Europe/Brussels (UTC+2.0)
Stats Elevation 184 ft / 56 m (AMSL)
Location 50.899948° 4.492814°
Runways 3
Magnetic Variation 1.184° E

METAR

EBBR 261020Z 08007KT 050V120 CAVOK 25/16 Q1019 NOSIG

Decode

TAF

TAF EBBR 260510Z 2606/2712 08004KT 2000 BR NSC BECMG 2606/2607 9999 NSW PROB30 TEMPO 2702/2705 4000 BR

Decode

Departure Runways

ID Width Length Bearing (true) Bearing (mag) Surface Threshold Offset Overrun Length
02 164 ft / 50 m 9,896 ft / 3,016 m 14.41° 13.23° Asphalt 249 ft / 76 m 0 ft / 0 m
07L 148 ft / 45 m 12,106 ft / 3,690 m 65.16° 63.98° Asphalt 801 ft / 244 m 0 ft / 0 m
07R 148 ft / 45 m 10,703 ft / 3,262 m 69.90° 68.72° Asphalt 499 ft / 152 m 0 ft / 0 m
20 164 ft / 50 m 9,896 ft / 3,016 m 194.42° 193.24° Asphalt 751 ft / 229 m 0 ft / 0 m
25L 148 ft / 45 m 10,703 ft / 3,262 m 249.93° 248.75° Asphalt 499 ft / 152 m 0 ft / 0 m
25R 148 ft / 45 m 12,106 ft / 3,690 m 245.20° 244.02° Asphalt 801 ft / 244 m 0 ft / 0 m

EBCI

Details ICAO EBCI (CRL)
Name Brussels South - Charleroi
Region Belgium
Timezone Europe/Brussels (UTC+2.0)
Stats Elevation 614 ft / 187 m (AMSL)
Location 50.459947° 4.453125°
Runways 1
Magnetic Variation 1.194° E

METAR

EBCI 260950Z 08008KT 040V110 CAVOK 25/15 Q1019 NOSIG

Decode

TAF

TAF EBCI 260510Z 2606/2712 08004KT 3000 BR NSC BECMG 2606/2607 9999 NSW

Decode

Destination Runways

ID Width Length Bearing (true) Bearing (mag) Surface Threshold Offset Overrun Length
07 148 ft / 45 m 8,374 ft / 2,552 m 65.53° 64.34° Asphalt 1,476 ft / 450 m 0 ft / 0 m
25 148 ft / 45 m 8,374 ft / 2,552 m 245.55° 244.36° Asphalt 0 ft / 0 m 0 ft / 0 m

Approach Navaids

Runway Type Ident Frequency Range Bearing (true) Bearing (mag) Slope Elevation
25 Localiser IGC 110.90 MHz 18 nm / 33 km 245.54° 244.35° - 614 ft / 187 m (AMSL)
25 Glidescope IGC 110.90 MHz 10 nm / 19 km 245.54° 244.35° 3.00° 614 ft / 187 m (AMSL)

Popular Alternatives